time, Switch, Flow(0), Analog(2)
yyyy/mm/dd HH:MM:SS.fff, True=FILTERED|False=TOTAL, L/min, V
2023/07/01 16:00:05.446, True, 1.328, 0.130541
2023/07/01 16:00:05.950, True, 0.993, 0.131456
2023/07/01 16:00:06.446, True, 1.011, 0.129549
2023/07/01 16:00:06.950, True, 0.995, 0.130846
2023/07/01 16:00:07.454, True, 0.995, 0.131151
2023/07/01 16:00:07.958, True, 0.995, 0.129931
2023/07/01 16:00:08.453, True, 1.011, 0.132143
2023/07/01 16:00:08.958, True, 0.995, 0.130465
2023/07/01 16:00:09.462, True, 0.995, 0.129091
2023/07/01 16:00:09.958, True, 1.011, 0.130236
2023/07/01 16:00:10.462, True, 0.995, 0.130694
2023/07/01 16:00:10.958, True, 1.011, 0.130770
2023/07/01 16:00:11.462, True, 0.663, 0.130465
2023/07/01 16:00:11.966, True, 0.995, 0.130617
2023/07/01 16:00:12.470, True, 0.995, 0.130846
2023/07/01 16:00:12.966, True, 1.011, 0.130388
2023/07/01 16:00:13.470, True, 0.995, 0.131380
2023/07/01 16:00:13.966, True, 1.348, 0.129320
2023/07/01 16:00:14.470, True, 0.995, 0.131304
2023/07/01 16:00:14.974, True, 0.995, 0.131762
2023/07/01 16:00:15.478, True, 0.997, 0.130770
2023/07/01 16:00:15.974, True, 1.010, 0.130541
2023/07/01 16:00:16.478, True, 1.325, 0.132067
2023/07/01 16:00:16.982, True, 0.996, 0.130617
2023/07/01 16:00:17.478, True, 1.009, 0.130922
2023/07/01 16:00:17.982, True, 0.995, 0.131228
2023/07/01 16:00:18.486, True, 0.994, 0.132753
2023/07/01 16:00:18.982, True, 1.011, 0.131380
2023/07/01 16:00:19.486, True, 0.995, 0.131456
2023/07/01 16:00:19.990, True, 0.995, 0.129931
2023/07/01 16:00:20.486, True, 0.673, 0.133440
2023/07/01 16:00:20.990, True, 0.995, 0.132372
2023/07/01 16:00:21.494, True, 0.995, 0.131228
2023/07/01 16:00:21.990, True, 1.011, 0.130465
2023/07/01 16:00:22.493, True, 0.994, 0.130083
2023/07/01 16:00:22.998, True, 1.326, 0.129625
2023/07/01 16:00:23.494, True, 0.674, 0.128939
2023/07/01 16:00:23.998, True, 1.328, 0.128099
2023/07/01 16:00:24.502, True, 0.994, 0.130617
2023/07/01 16:00:24.998, True, 1.011, 0.131380
2023/07/01 16:00:25.502, True, 0.996, 0.131762
2023/07/01 16:00:26.006, True, 0.994, 0.127642
2023/07/01 16:00:26.510, True, 0.995, 0.131151
2023/07/01 16:00:27.006, True, 1.011, 0.131228
2023/07/01 16:00:27.510, True, 0.995, 0.131914
2023/07/01 16:00:28.014, True, 0.995, 0.128786
2023/07/01 16:00:28.510, True, 1.011, 0.132219
2023/07/01 16:00:29.014, True, 0.995, 0.132143
2023/07/01 16:00:29.518, True, 0.995, 0.133974
2023/07/01 16:00:30.013, True, 1.012, 0.131456
2023/07/01 16:00:30.518, True, 0.993, 0.132525
2023/07/01 16:00:31.014, True, 1.011, 0.132296
2023/07/01 16:00:31.518, True, 0.994, 0.129549
2023/07/01 16:00:32.022, True, 0.995, 0.131380
2023/07/01 16:00:32.518, True, 1.011, 0.132143
2023/07/01 16:00:33.022, True, 0.995, 0.131304
2023/07/01 16:00:33.526, True, 0.994, 0.131228
2023/07/01 16:00:34.022, True, 0.674, 0.132296
2023/07/01 16:00:34.526, True, 0.995, 0.132906
2023/07/01 16:00:35.029, True, 0.995, 0.130694
2023/07/01 16:00:35.526, True, 1.010, 0.128939
2023/07/01 16:00:36.030, True, 0.996, 0.132448
2023/07/01 16:00:36.534, True, 0.993, 0.131914
2023/07/01 16:00:37.030, True, 1.011, 0.129854
2023/07/01 16:00:37.534, True, 0.995, 0.130770
2023/07/01 16:00:38.030, True, 1.011, 0.130007
2023/07/01 16:00:38.534, True, 0.995, 0.132067
2023/07/01 16:00:39.037, True, 0.996, 0.131838
2023/07/01 16:00:39.534, True, 1.010, 0.132448
2023/07/01 16:00:40.038, True, 1.326, 0.131991
2023/07/01 16:00:40.542, True, 0.663, 0.132525
2023/07/01 16:00:41.038, True, 1.011, 0.130465
2023/07/01 16:00:41.542, True, 0.994, 0.129397
2023/07/01 16:00:42.046, True, 0.995, 0.132143
2023/07/01 16:00:42.542, True, 1.011, 0.130617
2023/07/01 16:00:43.046, True, 0.995, 0.130007
2023/07/01 16:00:43.550, True, 0.996, 0.132143
2023/07/01 16:00:44.046, True, 1.009, 0.130465
2023/07/01 16:00:44.550, True, 0.995, 0.131991
2023/07/01 16:00:45.054, True, 0.995, 0.130007
2023/07/01 16:00:45.550, True, 1.011, 0.130465
2023/07/01 16:00:46.054, True, 0.995, 0.130388
2023/07/01 16:00:46.557, True, 0.994, 0.130465
2023/07/01 16:00:47.054, True, 1.011, 0.132219
2023/07/01 16:00:47.558, True, 1.326, 0.131609
2023/07/01 16:00:48.062, True, 0.995, 0.130007
2023/07/01 16:00:48.558, True, 0.674, 0.131914
2023/07/01 16:00:49.062, True, 0.995, 0.131762
2023/07/01 16:00:49.566, True, 0.995, 0.131380
2023/07/01 16:00:50.062, True, 1.011, 0.129778
2023/07/01 16:00:50.565, True, 0.995, 0.131838
2023/07/01 16:00:51.062, True, 1.011, 0.130922
2023/07/01 16:00:51.566, True, 1.326, 0.131762
2023/07/01 16:00:52.070, True, 0.994, 0.131075
2023/07/01 16:00:52.566, True, 1.011, 0.130770
2023/07/01 16:00:53.070, True, 0.995, 0.130541
2023/07/01 16:00:53.574, True, 0.995, 0.130999
2023/07/01 16:00:54.070, True, 1.011, 0.131609
2023/07/01 16:00:54.574, True, 0.995, 0.132982
2023/07/01 16:00:55.078, True, 1.326, 0.130159
2023/07/01 16:00:55.574, True, 1.011, 0.130236
2023/07/01 16:00:56.078, True, 0.995, 0.128099
2023/07/01 16:00:56.582, True, 0.996, 0.133059
2023/07/01 16:00:57.078, True, 1.010, 0.134661
2023/07/01 16:00:57.582, True, 0.995, 0.132067
2023/07/01 16:00:58.086, True, 0.995, 0.133669
2023/07/01 16:00:58.590, True, 0.995, 0.131914
2023/07/01 16:00:59.086, True, 1.011, 0.132296
2023/07/01 16:00:59.590, True, 0.996, 0.134356
2023/07/01 16:01:00.094, True, 0.993, 0.131914
2023/07/01 16:01:00.590, True, 1.011, 0.131456
2023/07/01 16:01:01.094, True, 0.995, 0.132753
2023/07/01 16:01:01.589, True, 1.011, 0.131533
2023/07/01 16:01:02.093, True, 0.995, 0.132601
2023/07/01 16:01:02.598, True, 0.995, 0.133288
2023/07/01 16:01:03.094, True, 1.011, 0.133211
2023/07/01 16:01:03.598, True, 0.995, 0.133516
2023/07/01 16:01:04.102, True, 0.995, 0.132601
2023/07/01 16:01:04.598, True, 1.011, 0.134585
2023/07/01 16:01:05.102, True, 0.663, 0.134585
2023/07/01 16:01:05.606, True, 0.995, 0.133364
2023/07/01 16:01:06.102, True, 1.011, 0.131991
2023/07/01 16:01:06.606, True, 0.995, 0.136568
2023/07/01 16:01:07.110, True, 1.327, 0.134966
2023/07/01 16:01:07.606, True, 1.011, 0.133745
2023/07/01 16:01:08.110, True, 0.995, 0.135882
2023/07/01 16:01:08.614, True, 0.995, 0.135500
2023/07/01 16:01:09.110, True, 1.011, 0.134585
2023/07/01 16:01:09.614, True, 0.995, 0.134661
2023/07/01 16:01:10.118, True, 0.663, 0.136797
2023/07/01 16:01:10.614, True, 1.011, 0.135424
2023/07/01 16:01:11.118, True, 0.995, 0.136187
2023/07/01 16:01:11.622, True, 0.995, 0.134356
2023/07/01 16:01:12.118, True, 1.011, 0.134127
2023/07/01 16:01:12.622, True, 0.995, 0.134127
2023/07/01 16:01:13.126, True, 0.995, 0.134966
2023/07/01 16:01:13.622, True, 1.011, 0.134966
2023/07/01 16:01:14.126, True, 0.995, 0.133822
2023/07/01 16:01:14.630, True, 0.994, 0.137255
2023/07/01 16:01:15.126, True, 1.011, 0.135500
2023/07/01 16:01:15.630, True, 0.995, 0.137331
2023/07/01 16:01:16.134, True, 0.995, 0.137102
2023/07/01 16:01:16.630, True, 1.011, 0.134737
2023/07/01 16:01:17.134, True, 0.995, 0.136187
2023/07/01 16:01:17.637, True, 0.995, 0.137865
2023/07/01 16:01:18.134, True, 1.011, 0.136187
2023/07/01 16:01:18.638, True, 0.995, 0.137942
2023/07/01 16:01:19.142, True, 1.326, 0.138170
2023/07/01 16:01:19.637, True, 1.011, 0.135576
2023/07/01 16:01:20.142, True, 0.995, 0.136416
2023/07/01 16:01:20.645, True, 0.995, 0.138170
2023/07/01 16:01:21.141, True, 1.011, 0.136950
2023/07/01 16:01:21.646, True, 0.995, 0.136797
2023/07/01 16:01:22.150, True, 0.995, 0.135424
2023/07/01 16:01:22.645, True, 0.674, 0.135576
2023/07/01 16:01:23.150, True, 1.327, 0.139086
2023/07/01 16:01:23.654, True, 0.995, 0.139467
2023/07/01 16:01:24.150, True, 0.673, 0.133593
2023/07/01 16:01:24.654, True, 0.995, 0.137102
2023/07/01 16:01:25.150, True, 1.011, 0.139010
2023/07/01 16:01:25.654, True, 0.995, 0.138705
2023/07/01 16:01:26.158, True, 1.326, 0.138705
2023/07/01 16:01:26.654, True, 1.011, 0.137407
2023/07/01 16:01:27.158, True, 0.663, 0.137331
2023/07/01 16:01:27.662, True, 0.994, 0.137636
2023/07/01 16:01:28.157, True, 1.011, 0.138247
2023/07/01 16:01:28.661, True, 1.326, 0.137713
2023/07/01 16:01:29.166, True, 0.995, 0.137865
2023/07/01 16:01:29.670, True, 0.663, 0.138170
2023/07/01 16:01:30.166, True, 1.011, 0.138094
2023/07/01 16:01:30.669, True, 0.995, 0.137331
2023/07/01 16:01:31.174, True, 0.995, 0.139239
2023/07/01 16:01:31.670, True, 1.011, 0.139467
2023/07/01 16:01:32.174, True, 0.996, 0.137102
2023/07/01 16:01:32.677, True, 0.995, 0.138476
2023/07/01 16:01:33.174, True, 1.010, 0.136873
2023/07/01 16:01:33.678, True, 0.995, 0.137179
2023/07/01 16:01:34.182, True, 0.995, 0.138933
2023/07/01 16:01:34.678, True, 1.011, 0.139239
2023/07/01 16:01:35.182, True, 0.995, 0.138170
2023/07/01 16:01:35.678, True, 1.009, 0.136492
2023/07/01 16:01:36.181, True, 0.996, 0.137255
2023/07/01 16:01:36.686, True, 0.993, 0.139162
2023/07/01 16:01:37.190, True, 0.996, 0.137484
2023/07/01 16:01:37.686, True, 1.009, 0.138476
2023/07/01 16:01:38.189, True, 0.995, 0.136339
2023/07/01 16:01:38.694, True, 0.996, 0.135882
2023/07/01 16:01:39.198, True, 0.994, 0.139239
2023/07/01 16:01:39.694, True, 1.011, 0.137179
2023/07/01 16:01:40.198, True, 0.995, 0.137560
2023/07/01 16:01:40.702, True, 0.995, 0.137255
2023/07/01 16:01:41.198, True, 1.010, 0.139010
2023/07/01 16:01:41.702, True, 0.995, 0.139315
2023/07/01 16:01:42.198, True, 1.010, 0.139849
2023/07/01 16:01:42.702, True, 0.997, 0.140078
2023/07/01 16:01:43.206, True, 0.993, 0.138628
2023/07/01 16:01:43.702, True, 1.011, 0.138933
2023/07/01 16:01:44.206, True, 0.995, 0.136873
2023/07/01 16:01:44.710, True, 0.996, 0.137713
2023/07/01 16:01:45.206, True, 1.010, 0.138170
2023/07/01 16:01:45.710, True, 0.995, 0.139162
2023/07/01 16:01:46.214, True, 0.995, 0.139391
2023/07/01 16:01:46.710, True, 1.011, 0.137942
2023/07/01 16:01:47.214, True, 0.996, 0.136110
2023/07/01 16:01:47.718, True, 0.994, 0.137713
2023/07/01 16:01:48.214, True, 0.674, 0.136721
2023/07/01 16:01:48.718, True, 0.995, 0.137179
2023/07/01 16:01:49.222, True, 0.995, 0.139544
2023/07/01 16:01:49.718, True, 1.011, 0.138781
2023/07/01 16:01:50.222, True, 0.995, 0.138247
2023/07/01 16:01:50.726, True, 0.995, 0.137331
2023/07/01 16:01:51.230, True, 0.995, 0.139239
2023/07/01 16:01:51.726, True, 1.011, 0.137179
2023/07/01 16:01:52.230, True, 0.995, 0.137331
2023/07/01 16:01:52.734, True, 0.995, 0.138094
2023/07/01 16:01:53.230, True, 1.011, 0.137331
2023/07/01 16:01:53.734, True, 0.995, 0.138018
2023/07/01 16:01:54.238, True, 0.995, 0.138018
2023/07/01 16:01:54.734, True, 1.348, 0.137636
2023/07/01 16:01:55.238, True, 0.995, 0.139467
2023/07/01 16:01:55.734, True, 0.674, 0.140154
2023/07/01 16:01:56.238, True, 1.326, 0.137713
2023/07/01 16:01:56.742, True, 0.995, 0.138399
2023/07/01 16:01:57.238, True, 1.011, 0.137636
2023/07/01 16:01:57.742, True, 0.995, 0.138170
2023/07/01 16:01:58.246, True, 0.995, 0.140002
2023/07/01 16:01:58.742, True, 1.012, 0.138628
2023/07/01 16:01:59.246, True, 0.994, 0.139391
2023/07/01 16:01:59.750, True, 0.996, 0.138781
2023/07/01 16:02:00.246, True, 1.009, 0.138323
2023/07/01 16:02:00.750, True, 0.995, 0.137636
2023/07/01 16:02:01.254, True, 0.995, 0.140993
2023/07/01 16:02:01.750, True, 1.011, 0.139544
2023/07/01 16:02:02.254, True, 0.995, 0.139162
2023/07/01 16:02:02.758, True, 0.995, 0.139162
2023/07/01 16:02:03.254, True, 1.011, 0.140307
2023/07/01 16:02:03.758, True, 0.996, 0.140078
2023/07/01 16:02:04.262, True, 0.994, 0.136797
2023/07/01 16:02:04.758, True, 1.011, 0.138552
2023/07/01 16:02:05.262, True, 0.995, 0.138476
2023/07/01 16:02:05.766, True, 0.995, 0.136797
2023/07/01 16:02:06.262, True, 1.011, 0.137942
2023/07/01 16:02:06.766, True, 0.995, 0.136873
2023/07/01 16:02:07.270, True, 0.663, 0.139010
2023/07/01 16:02:07.766, True, 1.011, 0.137636
2023/07/01 16:02:08.270, True, 0.995, 0.138323
2023/07/01 16:02:08.774, True, 0.995, 0.137865
2023/07/01 16:02:09.270, True, 1.012, 0.137942
2023/07/01 16:02:09.774, True, 0.994, 0.139315
2023/07/01 16:02:10.278, True, 0.995, 0.139696
2023/07/01 16:02:10.774, True, 1.011, 0.139086
2023/07/01 16:02:11.278, True, 0.995, 0.139391
2023/07/01 16:02:11.782, True, 0.995, 0.136263
2023/07/01 16:02:12.278, True, 1.011, 0.137942
2023/07/01 16:02:12.782, True, 0.995, 0.137865
2023/07/01 16:02:13.286, True, 0.995, 0.138857
2023/07/01 16:02:13.782, True, 1.011, 0.138628
2023/07/01 16:02:14.286, True, 0.996, 0.138323
2023/07/01 16:02:14.782, True, 1.009, 0.139925
2023/07/01 16:02:15.286, True, 0.995, 0.138781
2023/07/01 16:02:15.790, True, 0.995, 0.138094
2023/07/01 16:02:16.286, True, 0.673, 0.138476
2023/07/01 16:02:16.790, True, 0.995, 0.140459
2023/07/01 16:02:17.294, True, 1.326, 0.139391
2023/07/01 16:02:17.790, True, 1.011, 0.138476
2023/07/01 16:02:18.294, True, 0.994, 0.138399
2023/07/01 16:02:18.798, True, 0.995, 0.139315
2023/07/01 16:02:19.294, True, 1.011, 0.137407
2023/07/01 16:02:19.798, True, 0.995, 0.140154
2023/07/01 16:02:20.302, True, 0.996, 0.139162
2023/07/01 16:02:20.798, True, 1.012, 0.139467
2023/07/01 16:02:21.302, True, 1.324, 0.138094
2023/07/01 16:02:21.806, True, 0.664, 0.137789
2023/07/01 16:02:22.302, True, 1.010, 0.139773
2023/07/01 16:02:22.806, True, 0.994, 0.139391
2023/07/01 16:02:23.310, True, 1.326, 0.138323
2023/07/01 16:02:23.806, True, 1.011, 0.138628
2023/07/01 16:02:24.310, True, 0.996, 0.138857
2023/07/01 16:02:24.814, True, 0.993, 0.137636
2023/07/01 16:02:25.310, True, 1.011, 0.138399
2023/07/01 16:02:25.814, True, 0.995, 0.138170
2023/07/01 16:02:26.318, True, 0.996, 0.138933
2023/07/01 16:02:26.814, True, 1.011, 0.136187
2023/07/01 16:02:27.318, True, 0.995, 0.138323
2023/07/01 16:02:27.822, True, 0.662, 0.136873
2023/07/01 16:02:28.326, True, 0.995, 0.136568
2023/07/01 16:02:28.822, True, 1.011, 0.137407
2023/07/01 16:02:29.326, True, 1.326, 0.138476
2023/07/01 16:02:29.822, True, 0.674, 0.139544
2023/07/01 16:02:30.326, True, 1.327, 0.137636
2023/07/01 16:02:30.830, True, 0.664, 0.136416
2023/07/01 16:02:31.334, True, 0.994, 0.138094
2023/07/01 16:02:31.830, True, 1.011, 0.138552
2023/07/01 16:02:32.334, True, 0.994, 0.137102
2023/07/01 16:02:32.838, True, 0.995, 0.136950
2023/07/01 16:02:33.334, True, 1.011, 0.138705
2023/07/01 16:02:33.838, True, 0.994, 0.138170
2023/07/01 16:02:34.341, True, 0.996, 0.137255
2023/07/01 16:02:34.838, True, 1.011, 0.137560
2023/07/01 16:02:35.342, True, 0.995, 0.138323
2023/07/01 16:02:35.846, True, 0.995, 0.137865
2023/07/01 16:02:36.350, True, 0.994, 0.137179
2023/07/01 16:02:36.846, True, 0.674, 0.138094
2023/07/01 16:02:37.350, True, 0.996, 0.139086
2023/07/01 16:02:37.854, True, 1.325, 0.139544
2023/07/01 16:02:38.350, True, 1.011, 0.138170
2023/07/01 16:02:38.854, True, 0.996, 0.140307
2023/07/01 16:02:39.350, True, 1.010, 0.138323
2023/07/01 16:02:39.853, True, 0.995, 0.139696
2023/07/01 16:02:40.358, True, 0.996, 0.138781
2023/07/01 16:02:40.854, True, 1.009, 0.139849
2023/07/01 16:02:41.357, True, 0.995, 0.138323
2023/07/01 16:02:41.862, True, 0.995, 0.136568
2023/07/01 16:02:42.358, True, 1.013, 0.137179
2023/07/01 16:02:42.862, True, 0.993, 0.138857
2023/07/01 16:02:43.366, True, 0.997, 0.140078
2023/07/01 16:02:43.862, True, 1.009, 0.139467
2023/07/01 16:02:44.365, True, 1.326, 0.137331
2023/07/01 16:02:44.870, True, 0.663, 0.139010
2023/07/01 16:02:45.366, True, 1.011, 0.137407
2023/07/01 16:02:45.870, True, 0.995, 0.138018
2023/07/01 16:02:46.374, True, 1.326, 0.138247
2023/07/01 16:02:46.870, True, 1.011, 0.137179
2023/07/01 16:02:47.374, True, 0.663, 0.138628
2023/07/01 16:02:47.878, True, 0.995, 0.137636
2023/07/01 16:02:48.374, True, 1.347, 0.138933
2023/07/01 16:02:48.878, True, 0.663, 0.136873
2023/07/01 16:02:49.382, True, 0.995, 0.139086
2023/07/01 16:02:49.878, True, 1.348, 0.136873
2023/07/01 16:02:50.382, True, 0.995, 0.137026
2023/07/01 16:02:50.877, True, 1.011, 0.137560
2023/07/01 16:02:51.382, True, 0.995, 0.135424
2023/07/01 16:02:51.886, True, 0.995, 0.137255
2023/07/01 16:02:52.382, True, 1.011, 0.139391
2023/07/01 16:02:52.886, True, 0.995, 0.138933
2023/07/01 16:02:53.390, True, 0.995, 0.137026
2023/07/01 16:02:53.886, True, 1.011, 0.137942
2023/07/01 16:02:54.390, True, 0.995, 0.138705
2023/07/01 16:02:54.894, True, 0.995, 0.137102
2023/07/01 16:02:55.389, True, 1.011, 0.138323
2023/07/01 16:02:55.893, True, 0.995, 0.136645
2023/07/01 16:02:56.389, True, 1.011, 0.137789
2023/07/01 16:02:56.894, True, 0.995, 0.135729
2023/07/01 16:02:57.398, True, 0.996, 0.138933
2023/07/01 16:02:57.893, True, 1.009, 0.136873
2023/07/01 16:02:58.398, True, 0.663, 0.137713
2023/07/01 16:02:58.901, True, 0.995, 0.138628
2023/07/01 16:02:59.405, True, 0.995, 0.138552
2023/07/01 16:02:59.902, True, 1.011, 0.137789
2023/07/01 16:03:00.405, True, 0.997, 0.135119
2023/07/01 16:03:00.902, True, 1.009, 0.138857
2023/07/01 16:03:01.405, True, 0.995, 0.139086
2023/07/01 16:03:01.910, True, 0.997, 0.138247
2023/07/01 16:03:02.406, True, 1.011, 0.138628
2023/07/01 16:03:02.910, True, 0.993, 0.135653
2023/07/01 16:03:03.414, True, 0.995, 0.138628
2023/07/01 16:03:03.910, True, 1.012, 0.137942
2023/07/01 16:03:04.414, True, 0.994, 0.136110
2023/07/01 16:03:04.918, True, 0.663, 0.137713
2023/07/01 16:03:05.414, True, 1.011, 0.137636
2023/07/01 16:03:05.918, True, 1.326, 0.138628
2023/07/01 16:03:06.414, True, 1.011, 0.142214
2023/07/01 16:03:06.918, True, 0.995, 0.140612
2023/07/01 16:03:07.422, True, 0.995, 0.135805
2023/07/01 16:03:07.917, True, 1.011, 0.138323
2023/07/01 16:03:08.422, True, 0.994, 0.135958
2023/07/01 16:03:08.926, True, 0.996, 0.137713
2023/07/01 16:03:09.422, True, 1.012, 0.138170
2023/07/01 16:03:09.926, True, 0.994, 0.139086
2023/07/01 16:03:10.430, True, 0.995, 0.140078
2023/07/01 16:03:10.926, True, 1.010, 0.135348
2023/07/01 16:03:11.430, True, 0.996, 0.137102
2023/07/01 16:03:11.934, True, 0.995, 0.136263
2023/07/01 16:03:12.430, True, 1.348, 0.137560
2023/07/01 16:03:12.934, True, 0.994, 0.135042
2023/07/01 16:03:13.430, True, 1.011, 0.137942
2023/07/01 16:03:13.934, True, 0.663, 0.138705
2023/07/01 16:03:14.438, True, 1.327, 0.137331
2023/07/01 16:03:14.934, True, 1.010, 0.137102
2023/07/01 16:03:15.438, True, 0.995, 0.137942
2023/07/01 16:03:15.942, True, 0.994, 0.136568
2023/07/01 16:03:16.438, True, 1.011, 0.137179
2023/07/01 16:03:16.942, True, 0.995, 0.136568
2023/07/01 16:03:17.438, True, 1.011, 0.135882
2023/07/01 16:03:17.942, True, 0.995, 0.139391
2023/07/01 16:03:18.446, True, 0.995, 0.136034
2023/07/01 16:03:18.942, True, 1.011, 0.137407
2023/07/01 16:03:19.446, True, 0.995, 0.137407
2023/07/01 16:03:19.950, True, 0.995, 0.137255
2023/07/01 16:03:20.446, True, 1.011, 0.136263
2023/07/01 16:03:20.950, True, 0.995, 0.137179
2023/07/01 16:03:21.454, True, 0.995, 0.134585
2023/07/01 16:03:21.950, True, 1.011, 0.134737
2023/07/01 16:03:22.454, True, 0.995, 0.137407
2023/07/01 16:03:22.958, True, 0.995, 0.136568
2023/07/01 16:03:23.454, True, 1.010, 0.136873
2023/07/01 16:03:23.958, True, 0.995, 0.138705
2023/07/01 16:03:24.453, True, 1.011, 0.136645
2023/07/01 16:03:24.958, True, 1.326, 0.138170
2023/07/01 16:03:25.461, True, 0.663, 0.138323
2023/07/01 16:03:25.958, True, 1.011, 0.135576
2023/07/01 16:03:26.462, True, 0.995, 0.137865
2023/07/01 16:03:26.966, True, 0.995, 0.137179
2023/07/01 16:03:27.470, True, 0.995, 0.138476
2023/07/01 16:03:27.966, True, 1.011, 0.136110
2023/07/01 16:03:28.470, True, 0.995, 0.137026
2023/07/01 16:03:28.974, True, 0.995, 0.136110
2023/07/01 16:03:29.470, True, 1.011, 0.137102
2023/07/01 16:03:29.974, True, 0.995, 0.136187
2023/07/01 16:03:30.478, True, 0.995, 0.137789
2023/07/01 16:03:30.974, True, 1.011, 0.135805
2023/07/01 16:03:31.478, True, 0.995, 0.138323
2023/07/01 16:03:31.982, True, 0.995, 0.135653
2023/07/01 16:03:32.478, True, 1.011, 0.136187
2023/07/01 16:03:32.982, True, 0.995, 0.136339
2023/07/01 16:03:33.486, True, 1.326, 0.137179
2023/07/01 16:03:33.982, True, 1.012, 0.137865
2023/07/01 16:03:34.486, True, 0.993, 0.136187
2023/07/01 16:03:34.990, True, 0.995, 0.136416
2023/07/01 16:03:35.486, True, 1.011, 0.136339
2023/07/01 16:03:35.990, True, 0.995, 0.137026
2023/07/01 16:03:36.494, True, 0.663, 0.137789
2023/07/01 16:03:36.990, True, 1.011, 0.136873
2023/07/01 16:03:37.494, True, 0.995, 0.133669
2023/07/01 16:03:37.998, True, 0.995, 0.135958
2023/07/01 16:03:38.494, True, 1.011, 0.138018
2023/07/01 16:03:38.998, True, 0.995, 0.136110
2023/07/01 16:03:39.502, True, 0.995, 0.137255
2023/07/01 16:03:39.998, True, 1.011, 0.136339
2023/07/01 16:03:40.501, True, 0.663, 0.136797
2023/07/01 16:03:41.006, True, 1.328, 0.137102
2023/07/01 16:03:41.502, True, 1.009, 0.136721
2023/07/01 16:03:42.006, True, 0.995, 0.136492
2023/07/01 16:03:42.502, True, 1.011, 0.136645
2023/07/01 16:03:43.006, True, 0.995, 0.135958
2023/07/01 16:03:43.510, True, 0.995, 0.136645
2023/07/01 16:03:44.006, True, 0.674, 0.137713
2023/07/01 16:03:44.510, True, 0.996, 0.136110
2023/07/01 16:03:45.014, True, 0.993, 0.137255
2023/07/01 16:03:45.510, True, 1.011, 0.135882
2023/07/01 16:03:46.014, True, 0.995, 0.137713
2023/07/01 16:03:46.518, True, 0.995, 0.136110
2023/07/01 16:03:47.014, True, 1.011, 0.136721
2023/07/01 16:03:47.518, True, 0.995, 0.138170
2023/07/01 16:03:48.022, True, 0.663, 0.134737
2023/07/01 16:03:48.518, True, 1.011, 0.136797
2023/07/01 16:03:49.022, True, 1.326, 0.137179
2023/07/01 16:03:49.526, True, 0.995, 0.136110
2023/07/01 16:03:50.022, True, 1.011, 0.135424
2023/07/01 16:03:50.526, True, 0.995, 0.139773
2023/07/01 16:03:51.030, True, 0.995, 0.136339
2023/07/01 16:03:51.526, True, 1.011, 0.136416
2023/07/01 16:03:52.030, True, 0.995, 0.139010
2023/07/01 16:03:52.534, True, 0.995, 0.136645
2023/07/01 16:03:53.030, True, 1.011, 0.136034
2023/07/01 16:03:53.534, True, 0.995, 0.136034
2023/07/01 16:03:54.038, True, 0.996, 0.136721
2023/07/01 16:03:54.534, True, 1.011, 0.137026
2023/07/01 16:03:55.038, True, 0.993, 0.137179
2023/07/01 16:03:55.542, True, 0.995, 0.135958
2023/07/01 16:03:56.038, True, 1.011, 0.136797
2023/07/01 16:03:56.542, True, 0.995, 0.138628
2023/07/01 16:03:57.046, True, 0.663, 0.135729
2023/07/01 16:03:57.550, True, 0.995, 0.136950
2023/07/01 16:03:58.046, True, 1.011, 0.137102
2023/07/01 16:03:58.550, True, 0.996, 0.137865
2023/07/01 16:03:59.046, True, 1.010, 0.136645
2023/07/01 16:03:59.550, True, 1.326, 0.135195
2023/07/01 16:04:00.054, True, 0.995, 0.135424
2023/07/01 16:04:00.558, True, 0.663, 0.137636
2023/07/01 16:04:01.054, True, 1.348, 0.136645
2023/07/01 16:04:01.558, True, 0.995, 0.137942
2023/07/01 16:04:02.062, True, 0.996, 0.138552
2023/07/01 16:04:02.558, True, 1.010, 0.137102
2023/07/01 16:04:03.062, True, 0.995, 0.135653
2023/07/01 16:04:03.566, True, 0.995, 0.136797
2023/07/01 16:04:04.062, True, 0.674, 0.136492
2023/07/01 16:04:04.566, True, 0.996, 0.137407
2023/07/01 16:04:05.070, True, 0.993, 0.137179
2023/07/01 16:04:05.566, True, 1.011, 0.135653
2023/07/01 16:04:06.070, True, 0.996, 0.135424
2023/07/01 16:04:06.566, True, 1.010, 0.135271
2023/07/01 16:04:07.070, True, 0.995, 0.134661
2023/07/01 16:04:07.574, True, 0.994, 0.136110
2023/07/01 16:04:08.070, True, 1.348, 0.136110
2023/07/01 16:04:08.574, True, 0.995, 0.135271
2023/07/01 16:04:09.078, True, 0.996, 0.134508
2023/07/01 16:04:09.574, True, 1.009, 0.136568
2023/07/01 16:04:10.078, True, 0.995, 0.137331
2023/07/01 16:04:10.582, True, 0.995, 0.136110
2023/07/01 16:04:11.078, True, 1.012, 0.138170
2023/07/01 16:04:11.582, True, 0.994, 0.134661
2023/07/01 16:04:12.085, True, 0.996, 0.137102
2023/07/01 16:04:12.582, True, 1.009, 0.136492
2023/07/01 16:04:13.086, True, 0.995, 0.135271
2023/07/01 16:04:13.590, True, 0.995, 0.137026
2023/07/01 16:04:14.086, True, 1.011, 0.135119
2023/07/01 16:04:14.590, True, 0.994, 0.135500